| time (UTC) | temp C | wind direction | speed KPH | gust KPH | rain 1hr cm | rain 24hr cm | rain mn cm | humidity % | barometer mb |
| 20260507151505 | 22 | 240 | 1.6 | 0.0 | 0.00 | 0.00 | 0.00 | 43 | 1012.0 |
| 20260507143005 | 22 | 250 | 11.3 | 0.0 | 0.00 | 0.00 | 0.00 | 43 | 1012.0 |
| 20260507140005 | 22 | 270 | 1.6 | 0.0 | 0.00 | 0.00 | 0.00 | 43 | 1012.0 |
| 20260507133004 | 22 | 280 | 14.5 | 0.0 | 0.00 | 0.00 | 0.00 | 49 | 1012.0 |
| 20260507131504 | 21 | 290 | 14.5 | 0.0 | 0.00 | 0.00 | 0.00 | 49 | 1012.0 |
| 20260507124503 | 21 | 240 | 1.6 | 0.0 | 0.00 | 0.00 | 0.00 | 49 | 1012.0 |
| 20260507121504 | 22 | 230 | 12.9 | 0.0 | 0.00 | 0.00 | 0.00 | 49 | 1013.0 |
| 20260507120006 | 22 | 230 | 12.9 | 0.0 | 0.00 | 0.00 | 0.00 | 49 | 1013.0 |
| 20260507114504 | 21 | 0 | 8.0 | 0.0 | 0.00 | 0.00 | 0.00 | 52 | 1013.0 |
| 20260507113003 | 21 | 0 | 8.0 | 0.0 | 0.00 | 0.00 | 0.00 | 52 | 1013.0 |
| 20260507103005 | 20 | 220 | 8.0 | 0.0 | 0.00 | 0.00 | 0.00 | 60 | 1013.0 |
| 20260507101504 | 18 | 230 | 8.0 | 0.0 | 0.00 | 0.00 | 0.00 | 59 | 1013.0 |
| 20260507100005 | 18 | 230 | 8.0 | 0.0 | 0.00 | 0.00 | 0.00 | 59 | 1013.0 |
| 20260507093004 | 17 | 0 | 3.2 | 0.0 | 0.00 | 0.00 | 0.00 | 63 | 1013.0 |
| 20260507090005 | 17 | 230 | 4.8 | 0.0 | 0.00 | 0.00 | 0.00 | 72 | 1013.0 |
| 20260507084504 | 17 | 0 | 3.2 | 0.0 | 0.00 | 0.00 | 0.00 | 72 | 1013.0 |
| 20260507081504 | 16 | 150 | 4.8 | 0.0 | 0.00 | 0.00 | 0.00 | 72 | 1013.0 |
| 20260507074503 | 17 | 0 | 3.2 | 0.0 | 0.00 | 0.00 | 0.00 | 72 | 1012.0 |
| 20260507071504 | 15 | 0 | 3.2 | 0.0 | 0.00 | 0.00 | 0.00 | 76 | 1012.0 |
| 20260507070009 | 15 | 0 | 3.2 | 0.0 | 0.00 | 0.00 | 0.00 | 76 | 1012.0 |
| 20260507064504 | 13 | 50 | 4.8 | 0.0 | 0.00 | 0.00 | 0.00 | 87 | 1012.0 |
| 20260507063005 | 13 | 50 | 4.8 | 0.0 | 0.00 | 0.00 | 0.00 | 87 | 1012.0 |
| 20260507060004 | 12 | 0 | 3.2 | 0.0 | 0.00 | 0.00 | 0.00 | 100 | 1012.0 |
| 20260507051505 | 8 | 340 | 4.8 | 0.0 | 0.00 | 0.00 | 0.00 | 100 | 1011.0 |
| 20260507044504 | 8 | 350 | 3.2 | 0.0 | 0.00 | 0.00 | 0.00 | 100 | 1011.0 |
| 20260507041504 | 10 | 10 | 8.0 | 0.0 | 0.00 | 0.00 | 0.00 | 100 | 1011.0 |
| 20260507034504 | 10 | 360 | 3.2 | 0.0 | 0.00 | 0.00 | 0.00 | 100 | 1011.0 |
| 20260507033004 | 10 | 360 | 3.2 | 0.0 | 0.00 | 0.00 | 0.00 | 100 | 1011.0 |
| 20260507031504 | 10 | 0 | 3.2 | 0.0 | 0.00 | 0.00 | 0.00 | 100 | 1011.0 |
| 20260507030004 | 10 | 0 | 3.2 | 0.0 | 0.00 | 0.00 | 0.00 | 100 | 1011.0 |
| 20260507024504 | 11 | 350 | 8.0 | 0.0 | 0.00 | 0.00 | 0.00 | 100 | 1011.0 |
| 20260507023004 | 11 | 350 | 8.0 | 0.0 | 0.00 | 0.00 | 0.00 | 100 | 1011.0 |
| 20260507020004 | 11 | 350 | 4.8 | 0.0 | 0.00 | 0.00 | 0.00 | 100 | 1011.0 |
| 20260507013005 | 11 | 350 | 4.8 | 0.0 | 0.00 | 0.00 | 0.00 | 100 | 1011.0 |
| 20260507011504 | 11 | 350 | 4.8 | 0.0 | 0.00 | 0.00 | 0.00 | 100 | 1011.0 |
| 20260507010004 | 11 | 350 | 4.8 | 0.0 | 0.00 | 0.00 | 0.00 | 100 | 1011.0 |
| 20260507000004 | 11 | 0 | 3.2 | 0.0 | 0.00 | 0.00 | 0.00 | 100 | 1011.0 |
| 20260506234504 | 12 | 270 | 4.8 | 0.0 | 0.00 | 0.00 | 0.00 | 100 | 1011.0 |
| 20260506231504 | 12 | 220 | 4.8 | 0.0 | 0.00 | 0.00 | 0.00 | 100 | 1011.0 |
| 20260506223004 | 12 | 250 | 4.8 | 0.0 | 0.00 | 0.00 | 0.00 | 100 | 1011.0 |
| 20260506221505 | 13 | 0 | 3.2 | 0.0 | 0.00 | 0.00 | 0.00 | 100 | 1011.0 |
| 20260506220005 | 13 | 220 | 3.2 | 0.0 | 0.00 | 0.00 | 0.00 | 93 | 1011.0 |
| 20260506214504 | 13 | 220 | 3.2 | 0.0 | 0.00 | 0.00 | 0.00 | 93 | 1011.0 |
| 20260506213004 | 13 | 220 | 3.2 | 0.0 | 0.00 | 0.00 | 0.00 | 93 | 1011.0 |
| 20260506211504 | 15 | 140 | 4.8 | 0.0 | 0.00 | 0.00 | 0.00 | 93 | 1010.0 |
| 20260506204504 | 15 | 100 | 8.0 | 0.0 | 0.00 | 0.00 | 0.00 | 93 | 1010.0 |
| 20260506203004 | 15 | 100 | 8.0 | 0.0 | 0.00 | 0.00 | 0.00 | 93 | 1010.0 |
| 20260506201504 | 16 | 110 | 8.0 | 0.0 | 0.00 | 0.00 | 0.00 | 87 | 1009.0 |
| 20260506200005 | 16 | 110 | 8.0 | 0.0 | 0.00 | 0.00 | 0.00 | 87 | 1009.0 |
| 20260506193004 | 17 | 100 | 11.3 | 0.0 | 0.00 | 0.00 | 0.00 | 82 | 1009.0 |
| 20260506191504 | 17 | 90 | 14.5 | 0.0 | 0.00 | 0.00 | 0.00 | 77 | 1009.0 |
| 20260506184504 | 17 | 90 | 14.5 | 0.0 | 0.00 | 0.00 | 0.00 | 82 | 1008.0 |
| 20260506181505 | 17 | 80 | 14.5 | 0.0 | 0.00 | 0.00 | 0.00 | 82 | 1008.0 |
| 20260506180005 | 17 | 80 | 14.5 | 0.0 | 0.00 | 0.00 | 0.00 | 82 | 1008.0 |
| 20260506171504 | 18 | 90 | 1.6 | 0.0 | 0.00 | 0.00 | 0.00 | 72 | 1008.0 |
| 20260506164504 | 18 | 90 | 1.6 | 0.0 | 0.00 | 0.00 | 0.00 | 77 | 1008.0 |
| 20260506163005 | 18 | 90 | 1.6 | 0.0 | 0.00 | 0.00 | 0.00 | 77 | 1008.0 |
| 20260506160005 | 20 | 80 | 14.5 | 0.0 | 0.00 | 0.00 | 0.00 | 72 | 1008.0 |
| 20260506154504 | 18 | 80 | 11.3 | 0.0 | 0.00 | 0.00 | 0.00 | 77 | 1008.0 |
| 20260506153004 | 18 | 80 | 11.3 | 0.0 | 0.00 | 0.00 | 0.00 | 77 | 1008.0 |